TimeCDT,TemperatureF,Dew PointF,Humidity,Sea Level PressureIn,VisibilityMPH,Wind Direction,Wind SpeedMPH,Gust SpeedMPH,PrecipitationIn,Events,Conditions,WindDirDegrees,DateUTC
12:56 AM,73.0,64.9,76,30.12,10.0,NNE,6.9,-,N/A,,Clear,30,2013-08-27 05:56:00
1:56 AM,72.0,64.9,78,30.10,10.0,NNE,5.8,-,N/A,,Clear,30,2013-08-27 06:56:00
2:56 AM,72.0,64.0,76,30.09,10.0,NNE,5.8,-,N/A,,Clear,30,2013-08-27 07:56:00
3:56 AM,71.1,64.0,78,30.09,10.0,NNE,5.8,-,N/A,,Clear,30,2013-08-27 08:56:00
4:56 AM,68.0,64.9,90,30.09,10.0,Calm,Calm,-,N/A,,Clear,0,2013-08-27 09:56:00
5:56 AM,66.9,64.9,93,30.08,10.0,North,3.5,-,N/A,,Partly Cloudy,350,2013-08-27 10:56:00
6:56 AM,69.1,66.0,90,30.10,10.0,North,3.5,-,N/A,,Scattered Clouds,10,2013-08-27 11:56:00
7:56 AM,73.9,66.0,76,30.10,10.0,ENE,6.9,-,N/A,,Scattered Clouds,60,2013-08-27 12:56:00
8:56 AM,79.0,68.0,69,30.11,10.0,NE,5.8,-,N/A,,Scattered Clouds,50,2013-08-27 13:56:00
9:56 AM,82.0,69.1,65,30.12,10.0,NE,6.9,-,N/A,,Scattered Clouds,50,2013-08-27 14:56:00
10:56 AM,82.9,66.9,58,30.11,10.0,Calm,Calm,-,N/A,,Scattered Clouds,0,2013-08-27 15:56:00
11:56 AM,82.9,64.9,54,30.10,10.0,Variable,3.5,-,N/A,,Scattered Clouds,0,2013-08-27 16:56:00
12:56 PM,84.0,64.9,53,30.08,10.0,SSE,5.8,-,N/A,,Scattered Clouds,150,2013-08-27 17:56:00
1:56 PM,84.9,68.0,57,30.07,10.0,SSE,8.1,-,N/A,,Mostly Cloudy,150,2013-08-27 18:56:00
2:56 PM,82.9,68.0,60,30.06,10.0,Variable,5.8,-,N/A,,Scattered Clouds,0,2013-08-27 19:56:00
3:56 PM,84.9,66.0,53,30.05,10.0,Calm,Calm,-,N/A,,Scattered Clouds,0,2013-08-27 20:56:00
4:56 PM,82.9,66.9,58,30.04,10.0,South,8.1,-,N/A,,Scattered Clouds,180,2013-08-27 21:56:00
5:56 PM,82.0,68.0,62,30.04,10.0,SW,5.8,-,N/A,,Scattered Clouds,230,2013-08-27 22:56:00
6:56 PM,79.0,68.0,69,30.03,10.0,WSW,3.5,-,N/A,,Scattered Clouds,240,2013-08-27 23:56:00
7:56 PM,75.0,68.0,79,30.04,10.0,WSW,3.5,-,N/A,,Partly Cloudy,250,2013-08-28 00:56:00
8:56 PM,72.0,68.0,87,30.05,10.0,Calm,Calm,-,N/A,,Partly Cloudy,0,2013-08-28 01:56:00
9:56 PM,71.1,68.0,90,30.06,10.0,Calm,Calm,-,N/A,,Partly Cloudy,0,2013-08-28 02:56:00
10:56 PM,75.0,68.0,79,30.06,10.0,North,6.9,-,N/A,,Clear,10,2013-08-28 03:56:00
11:56 PM,73.9,68.0,82,30.05,10.0,North,4.6,-,N/A,,Clear,350,2013-08-28 04:56:00